Regional Weather Roundup
Issued by NWS

Home | Current Version | Previous Version | Text Only | Print | Product List | Glossary Off
Versions: 1 2 3 4 5 6 7 8 9 10 11 12 13 14 15 16 17 18 19 20 21 22 23 24 25 26 27 28 29 30 31 32 33 34 35 36 37 38 39 40 41 42 43 44 45 46 47 48 49 50

000
ASUS43 KDMX 261606
RWRIA

WEATHER ROUNDUP FOR IOWA
NATIONAL WEATHER SERVICE DES MOINES IA
1100 AM CDT SUN MAR 26 2017

NOTE: "FAIR" INDICATES FEW OR NO CLOUDS BELOW 12,000 FEET WITH NO
SIGNIFICANT WEATHER AND/OR OBSTRUCTIONS TO VISIBILITY.

* - THESE STATIONS ARE NOT NWS STATIONS...THUS NOT UNDER NWS
QUALITY CONTROL.  THEY ALSO DO NOT REPORT WEATHER SUCH
AS PRECIPITATION OR FOG.

IAZ001>003-012>014-020>022-031>034-043>046-261700-
   NORTHWEST IOWA

CITY           SKY/WX    TMP DP  RH WIND       PRES   REMARKS
CARROLL *      CLOUDY    41  41 100 N8        29.90S FOG
CHEROKEE *     CLOUDY    40  39  97 N6        29.91F
LE MARS *      CLOUDY    43  37  81 NE8       29.94R
ORANGE CITY *  CLOUDY    39  37  93 NE8       29.92S WCI  34
SHELDON *      CLOUDY    39  39 100 NE8       29.91S WCI  34
SIOUX CITY     CLOUDY    43  38  82 N7        29.93S
SPENCER        CLOUDY    41  38  89 N9        29.91S
$$

IAZ055>058-069>071-079>083-090>094-261700-
   SOUTHWEST IOWA

CITY           SKY/WX    TMP DP  RH WIND       PRES   REMARKS
ATLANTIC *     CLOUDY    43  41  93 NW7       29.90R
AUDUBON *      CLOUDY    41  39  93 N7        29.90S FOG
CLARINDA *     CLOUDY    43  41  93 N3        29.94R
COUNCIL BLFS * CLOUDY    41  41 100 N7        29.91R
CRESTON *      CLOUDY    43  43 100 NW8       29.90R FOG
HARLAN  *      CLOUDY    41  41 100 N6        29.94R
LAMONI         CLOUDY    45  42  89 NW7       29.87F
RED OAK *      CLOUDY    45  41  87 NW7       29.91R
SHENANDOAH *   CLOUDY    43  41  93 NW7       29.94R
$$

IAZ047>049-059>061-072>074-084-261700-
   CENTRAL IOWA

CITY           SKY/WX    TMP DP  RH WIND       PRES   REMARKS
AMES           CLOUDY    42  42 100 N7        29.89R
ANKENY *       CLOUDY    43  41  93 NW7       29.90R
BOONE *        CLOUDY    41  41 100 N7        29.88R
CHARITON *     CLOUDY    43  41  93 NW9       29.89R FOG
DES MOINES     CLOUDY    42  41  96 NW7       29.89R FOG
GRINNELL*      CLOUDY    42  41  98 NW9       29.87R FOG
MARSHALLTOWN   CLOUDY    42  42 100 N9        29.86S FOG
NEWTON *       CLOUDY    41  41 100 NW8       29.87R FOG
PELLA *        CLOUDY    43  42  97 NW8       29.89R FOG
PERRY *        CLOUDY    42  41  97 NW6       29.90R
$$

IAZ004>006-015-016-023>025-035-036-261700-
   NORTH CENTRAL IOWA

CITY           SKY/WX    TMP DP  RH WIND       PRES   REMARKS
ALGONA *       PTSUNNY   39  39 100 N10       29.90R WCI  32
CLARION *      CLOUDY    41  41 100 NE9       29.89R
ESTHERVILLE    CLOUDY    38  38 100 N10       29.91R WCI  31
FORT DODGE *   CLOUDY    39  37  93 N5        29.90S
MASON CITY     CLOUDY    40  38  93 N9        29.90S WCI  34
FOREST CITY *  CLOUDY    37  37 100 N9        29.89S FOG     WCI  31
WEBSTER CITY * CLOUDY    41  39  93 N9        29.87R
IOWA FALLS *   CLOUDY    41  40  97 N7        29.88F FOG
$$

IAZ007>011-017>019-026>030-037>042-050>054-066-261700-
   NORTHEAST IOWA

CITY           SKY/WX    TMP DP  RH WIND       PRES   REMARKS
CEDAR RAPIDS   FOG       45  45 100 N7        29.82S VSB 1/4
CHARLES CITY * CLOUDY    39  39 100 N10       29.88S FOG     WCI  32
CLINTON *      LGT RAIN  52  51  97 E5        29.83R VSB 3/4
DECORAH *      FOG       37  37 100 VRB5      29.86S VSB 1/4 WCI  34
DUBUQUE        FOG       44  44 100 NE10      29.83S VSB 1/4
MONTICELLO *   FOG       46  46 100 N6        29.83R VSB 1/4
OELWEIN *      CLOUDY    41  41 100 NE7       29.86R FOG
WATERLOO       CLOUDY    41  40  96 N9        29.87R FOG
$$

IAZ064-065-067-068-078-261700-
   EAST CENTRAL IOWA

CITY           SKY/WX    TMP DP  RH WIND       PRES   REMARKS
DAVENPORT      CLOUDY    53  52  96 S7        29.82S
IOWA CITY      CLOUDY    49  47  93 N6        29.84S FOG
MUSCATINE *    FOG       52  52 100 CALM      29.82S VSB 1/2
QUAD CITIES    CLOUDY    56  52  86 SW8       29.81S
$$

IAZ062-063-075>077-085>089-095>099-261700-
   SOUTHEAST IOWA

CITY           SKY/WX    TMP DP  RH WIND       PRES   REMARKS
BURLINGTON     CLOUDY    48  48 100 W12       29.83R
FAIRFIELD *    CLOUDY    46  46 100 NW10      29.84R
FORT MADISON * CLOUDY    50  50 100 SW9       29.85R
KEOKUK *       CLOUDY    48  46  93 W16       29.85R
OSKALOOSA *    CLOUDY    43  43  99 W13       29.87R
OTTUMWA        CLOUDY    45  44  97 W12       29.86R
WASHINGTON *   FOG       48  48 100 W6        29.84S VSB<1/4
$$

ABBREVIATIONS USED IN REMARKS
   TC - TEMPERATURES IN CELSIUS
  WCI - WIND CHILL INDEX
   HX - HEAT INDEX
  VSB - VISIBILITY
$$




USA.gov is the U.S. government's official web portal to all federal, state and local government web resources and services.